This is the latest recevied weather packets stored in our database for station/object W1SCW. If no packets are shown the sender has not sent any weather packets the latest 10 day(s).
| Time | Temp. | Humidity | Pressure | Rain* | Wind** | Luminosity | Snow |
|---|---|---|---|---|---|---|---|
| 1777690264 | 13.33° C | 99% | 1013.1 hPa | 0 mm | - | 0 W/m² | - |
| 1777689962 | 13.33° C | 99% | 1012.9 hPa | 0 mm | - | 0 W/m² | - |
| 1777689660 | 13.33° C | 99% | 1012.7 hPa | 0 mm | - | 0 W/m² | - |
| 1777689357 | 13.33° C | 99% | 1012.5 hPa | 0 mm | - | 0 W/m² | - |
| 1777689054 | 13.33° C | 99% | 1012.5 hPa | 0 mm | - | 0 W/m² | - |
| 1777688751 | 13.33° C | 99% | 1012.6 hPa | 1.78 mm | - | 0 W/m² | - |
| 1777688448 | 13.33° C | 99% | 1012.3 hPa | 4.32 mm | - | 0 W/m² | - |
| 1777688146 | 13.33° C | 99% | 1012.4 hPa | 4.32 mm | - | 0 W/m² | - |
| 1777687842 | 13.33° C | 99% | 1012.6 hPa | 0 mm | - | 0 W/m² | - |
| 1777687540 | 13.89° C | 99% | 1012.4 hPa | 3.56 mm | - | 0 W/m² | - |
| 1777687237 | 13.89° C | 99% | 1012 hPa | 3.56 mm | - | 0 W/m² | - |
| 1777686935 | 13.89° C | 99% | 1012.2 hPa | 0 mm | - | 0 W/m² | - |
| 1777686631 | 13.89° C | 99% | 1012.2 hPa | 0.51 mm | - | 0 W/m² | - |
| 1777686328 | 13.89° C | 99% | 1012.1 hPa | 1.27 mm | - | 0 W/m² | - |
| 1777686025 | 13.89° C | 99% | 1012.2 hPa | 1.27 mm | - | 0 W/m² | - |
| 1777685720 | 13.89° C | 99% | 1012.1 hPa | 1.27 mm | - | 0 W/m² | - |
| 1777685417 | 13.89° C | 99% | 1012.4 hPa | 1.27 mm | - | 0 W/m² | - |
| 1777685114 | 14.44° C | 99% | 1011.7 hPa | 3.05 mm | - | 0 W/m² | - |
| 1777684812 | 14.44° C | 99% | 1011.5 hPa | 3.56 mm | - | 0 W/m² | - |
| 1777684508 | 15° C | 99% | 1011.4 hPa | 4.83 mm | - | 0 W/m² | - |
| 1777684205 | 15° C | 99% | 1011.4 hPa | 4.83 mm | - | 0 W/m² | - |
| 1777683902 | 15° C | 99% | 1011.7 hPa | 4.83 mm | - | 0 W/m² | - |
| 1777683598 | 15° C | 99% | 1011.5 hPa | 1.27 mm | - | 1 W/m² | - |
| 1777683296 | 15° C | 99% | 1011.8 hPa | 0.51 mm | - | 1 W/m² | - |
| 1777682994 | 15° C | 99% | 1012.4 hPa | 1.78 mm | - | 1 W/m² | - |
* Rain latest hour (hover to see other rain measurements)
** Current wind speed in m/s (hover to see current wind gust speed)